Flag for Germany Weather past 2 weeks in Gera, Thuringia, Germany

Now
41 °F

Low clouds.


Feels Like: 38 °F
Forecast: 34 / 57 °F
Wind: 5 mph from North

Location: Gera-Leumnitz

Current Time: Apr 28, 2015 at 3:46:34 AM

Latest Report: Apr 28, 2015 at 3:00 AM


Visibility: 2 mi

Pressure: 29.75 "Hg

Humidity: 97%

Dew point: 40 °F

Location of GeraLocation

Historic Weather in Gera — Graph

°F

Gera temperature yesterday

Maximum temperature yesterday: 67 °F (at 12:00 PM)
Minimum temperature yesterday: 44 °F (at 11:00 PM)
Average temperature yesterday: 53 °F

Past Weeks' High & Low Weather Summary

 TemperatureHumidityPressure
High72 °F (Apr 15, 5:00 PM)100% (Apr 23, 7:00 AM)30.45 "Hg (Apr 23, 7:00 AM)
Low31 °F (Apr 23, 6:00 AM)20% (Apr 21, 6:00 PM)29.56 "Hg (Apr 27, 12:00 PM)
Average50 °F64%30.08 "Hg
* Reported Apr 13 2:00 AM — Apr 28 2:00 AM, Gera, Weather by CustomWeather, © 2015

Note: Actual official high and low records may vary slightly from our data, if they occured in-between our weather recording intervals... More about our weather records

Advertising

Gera weather history for previous 24 hours

 ConditionsComfort  
Time TempWeatherWind HumidityBarometerVisibility
2:00 AM
Tue, Apr 28
42 °FDrizzle. Low clouds.6 mph98%29.75 "Hg1 mi
1:00 AM42 °FDrizzle. Low clouds.6 mph97%29.74 "Hg1 mi
12:00 AM43 °FDrizzle. Low clouds.6 mph97%29.74 "Hg1 mi
11:00 PM
Mon, Apr 27
44 °FDrizzle. Low clouds.6 mph99%29.72 "Hg1 mi
10:00 PM45 °FLow clouds.6 mph98%29.72 "Hg2 mi
9:00 PM45 °FLight rain. Low clouds.6 mph98%29.70 "Hg1 mi
8:00 PM46 °FRain. Low clouds.7 mph99%29.67 "Hg1 mi
7:00 PM48 °FLight rain. Low clouds.6 mph97%29.67 "Hg2 mi
6:00 PM48 °FFog.6 mph94%29.67 "Hg4 mi
5:00 PM49 °FFog.6 mph96%29.65 "Hg4 mi
4:00 PM51 °FThunderstorms. Low clouds.8 mph94%29.62 "Hg2 mi
3:00 PM51 °FThundershowers. Low clouds.7 mph97%29.62 "Hg1 mi
2:00 PM56 °FThundershowers. Overcast.7 mph91%29.59 "Hg1 mi
1:00 PM64 °FOvercast.5 mph64%29.57 "Hg37 mi
12:00 PM67 °FPartly sunny.1 mph54%29.56 "Hg37 mi
11:00 AM64 °FOvercast.2 mph65%29.57 "Hg43 mi
10:00 AM60 °FOvercast.3 mph72%29.57 "Hg37 mi
9:00 AM58 °FPartly sunny.3 mph74%29.58 "Hg43 mi
8:00 AM57 °FLight rain. Overcast.5 mph76%29.58 "Hg43 mi
7:00 AM53 °FOvercast.5 mph81%29.58 "Hg37 mi
6:00 AM53 °FOvercast.5 mph84%29.59 "Hg25 mi
5:00 AM52 °FOvercast.5 mph88%29.60 "Hg16 mi
4:00 AM51 °FLight rain. Low clouds.5 mph90%29.62 "Hg6 mi
3:00 AM50 °FOvercast.5 mph88%29.65 "Hg15 mi
Weather by CustomWeather, © 2015

See weather overviewHow to use our weather pages